Preview of NWS' New Version of Forecast
This preview is not operational and should not be used for support decisions.

Regional Weather Roundup (RWR)

Issued by National Weather Service (NWS)

                            
000
ASUS43 KDTX 212201
RWRMI 
MICHIGAN HOURLY REGIONAL WEATHER ROUNDUP
NATIONAL WEATHER SERVICE DETROIT/PONTIAC MI
500 PM EST THU FEB 21 2019

NOTE: "FAIR" INDICATES FEW OR NO CLOUDS BELOW 12,000 FEET WITH NO
SIGNIFICANT WEATHER AND/OR OBSTRUCTION TO VISIBILITY.

MIZ047>049-052>055-059>063-066>070-074>076-081>083-212300-
SOUTHEAST LOWER MICHIGAN
  
CITY           SKY/WX    TMP DP  RH WIND       PRES   REMARKS
ADRIAN         FAIR      36  21  54 W8        30.19R WCI  30          
ALMA           FAIR      32  18  54 W13       30.15R WCI  23          
ANN ARBOR      FAIR      37  22  54 SW15      30.15R WCI  28          
BAD AXE        PTSUNNY   34  23  65 W10       30.11R WCI  26          
CARO           FAIR      33  23  66 W9        30.13R WCI  26          
DETROIT CITY   FAIR      39  20  46 W15       30.14R WCI  31          
DETROIT        PTSUNNY   38  20  48 SW15      30.16R WCI  29          
FLINT          FAIR      34  22  61 W14       30.14R WCI  25          
GROSSE ILE     FAIR      38  23  53 W9        30.16R WCI  32          
HILLSDALE      FAIR      35  18  49 W12       30.17R WCI  27          
HOWELL         FAIR      35  20  53 W10G17    30.15R WCI  28          

CITY           SKY/WX    TMP DP  RH WIND       PRES   REMARKS
JACKSON        FAIR      34  21  59 SW13G21   30.16R WCI  25          
LAMBERTVILLE   FAIR      38  26  63 W7        30.18S WCI  32          
LANSING        FAIR      34  22  61 W10       30.17R WCI  26          
LAPEER         NOT AVBL                                               
MASON          FAIR      35  20  55 W6G16     30.16R WCI  30          
MONROE         FAIR      38  25  60 W13       30.17S WCI  30          
MT. CLEMENS    CLOUDY    39  21  47 W17       30.12R WCI  30          
PONTIAC        CLOUDY    36  20  52 W14       30.12R WCI  27          
PORT HOPE        N/A     34  20  56 W8        30.09R WCI  27          
PORT HURON     FAIR      39  19  45 W6        30.13R WCI  35          
TRI CITIES     FAIR      33  20  58 SW17      30.14R WCI  22          
MIDLAND        NOT AVBL                                               
TROY           FAIR      39  15  38 W14       30.15R WCI  31          
SAGINAW HB     FAIR      34  21  60 SW13G20   30.14R WCI  25          
$$
MIZ043>046-050>051-056>058-064>065-071>073-077>080-212300-
SOUTHWEST LOWER MICHIGAN
  
CITY           SKY/WX    TMP DP  RH WIND       PRES   REMARKS
BATTLE CREEK   FAIR      34  20  56 W15       30.18R WCI  24          
BENTON HARBOR  FAIR      33  20  58 SW15      30.23R WCI  23          
BIG RAPIDS     FAIR      30  17  58 W13       30.13R WCI  20          
COLDWATER      FAIR      36  21  55 W14       30.20R WCI  27          
FREMONT        FAIR      30  18  60 W13       30.16R WCI  20          
HOLLAND        FAIR      31  21  66 W12       30.20R WCI  22          
GRAND RAPIDS   PTSUNNY   33  20  58 W12       30.17R WCI  24          
IONIA          FAIR      32  19  58 W15       30.15R WCI  21          
KALAMAZOO      FAIR      33  20  58 W10       30.20R WCI  25          
LUDINGTON      FAIR      29  18  63 NW9       30.16R WCI  21          
MOUNT PLEASANT FAIR      33  16  50 W12       30.12R WCI  24          
MUSKEGON       FAIR      31  18  58 W14G20    30.19R WCI  21          
SOUTH HAVEN    FAIR      33  20  59 W12       30.22R WCI  24          
$$
MIZ016>042-212300-
NORTHERN LOWER MICHIGAN
  
CITY           SKY/WX    TMP DP  RH WIND       PRES   REMARKS
ALPENA         CLOUDY    30  19  63 W8        30.10R WCI  22          
BEAVER ISLAND  CLOUDY    29  25  83 W9        30.10R WCI  21          
BELLAIRE       LGT SNOW  28  21  74 SW6       30.14R WCI  22          
CADILLAC       CLOUDY    25  16  67 W7        30.11R WCI  18          
CHARLEVOIX     FLURRIES  31  24  74 W13       30.14R WCI  21          
FRANKFORT      PTSUNNY   29  20  69 W7        30.15R WCI  22          
GAYLORD        LGT SNOW  24  19  81 W12       30.07R WCI  13          
HARBOR SPRINGS CLOUDY    29  25  83 W8        30.10R WCI  21          
HOUGHTON LAKE  PTSUNNY   26  16  65 W13       30.12R WCI  15          
MANISTEE       CLOUDY    27  20  75 W8        30.17R WCI  19          
OSCODA         PTSUNNY   32  18  55 W14       30.11R WCI  22          
PELLSTON       LGT SNOW  30  23  75 W8        30.09R WCI  22          
ROGERS CITY    FLURRIES  30  23  76 W10       30.09R WCI  21          
TRAVERSE CITY  CLOUDY    29  19  66 SW6       30.14R WCI  23          
$$
MIZ007>008-015-212300-
EASTERN UPPER MICHIGAN
  
CITY           SKY/WX    TMP DP  RH WIND       PRES   REMARKS
KINROSS        FLURRIES  29  24  82 W10       30.05R WCI  20          
MACKINAC ISLAN FLURRIES  29  25  84 W16       30.07R WCI  18          
NEWBERRY       CLOUDY    28  22  79 MISG      30.07R                  
S. S. MARIE    CLOUDY    30  25  81 W10G21    30.05R WCI  21          
MUNISING         N/A     28  21  75 N13G21    30.11R WCI  17          
$$
MIZ004>006-011>014-085-212300-
CENTRAL UPPER MICHIGAN
  
CITY           SKY/WX    TMP DP  RH WIND       PRES   REMARKS
MANISTIQUE     CLOUDY    30  20  67 NW8       30.09R WCI  22          
ESCANABA       CLOUDY    31  22  69 W6        30.12R WCI  25          
MENOMINEE      CLOUDY    33  17  51 N8        30.13R WCI  26          
SAWYER-GWINN   CLOUDY    27  21  80 NW8       30.08R WCI  18          
$$
MIZ001>003-009>011-084-212300-
WESTERN UPPER MICHIGAN
  
CITY           SKY/WX    TMP DP  RH WIND       PRES   REMARKS
IRON MOUNTAIN  CLOUDY    27  18  69 W9        30.08R WCI  18          
HOUGHTON       CLOUDY    24  18  77 W14       30.08R WCI  12          
COPPER HARBOR    N/A     26  21  81 N9G17     30.09R WCI  17          
IRONWOOD       CLOUDY    26  19  74 W8        30.12R WCI  18          
$$

ABBREVIATIONS USED IN REMARKS
   TC - TEMPERATURE IN CELSIUS
  WCI - WIND CHILL INDEX
   HX - HEAT INDEX
  VSB - VISIBILITY